Location: Couloutre
(47.4081°N, 3.2259°E)
Time: 04:05:44
(UTC+00:00)

STARLINK-51 - Pass Details

Date: 27 February 2020
Orbit: 529 x 530 km, 53.0° (Epoch: 09 April)

Event Time Altitude Azimuth Distance (km) Brightness Sun altitude
Rises 17:46:04 0° 268° (W) 2,667 9.8 -3.8°
Reaches altitude 10° 17:48:22 10° 276° (W) 1,779 7.9 -4.2°
Maximum altitude 17:52:12 42° 348° (NNW) 772 4.4 -4.8°
Drops below altitude 10° 17:56:04 10° 60° (ENE) 1,783 5.7 -5.5°
Enters shadow 17:57:00 - 64° (ENE) 2,138 6.0 -5.6°
